TimeEDT,TemperatureF,Dew PointF,Humidity,Sea Level PressureIn,VisibilityMPH,Wind Direction,Wind SpeedMPH,Gust SpeedMPH,PrecipitationIn,Events,Conditions,WindDirDegrees,DateUTC
12:30 AM,68.0,64.4,88,30.10,6.0,ENE,8.1,-,0.01,Rain,Light Rain,70,2013-07-13 04:30:00
12:51 AM,68.0,64.9,90,30.11,5.0,ENE,9.2,-,0.02,Rain,Light Rain,60,2013-07-13 04:51:00
1:51 AM,68.0,64.9,90,30.12,10.0,ENE,6.9,-,0.00,,Overcast,70,2013-07-13 05:51:00
2:51 AM,66.9,64.9,93,30.11,6.0,East,9.2,-,0.00,,Overcast,80,2013-07-13 06:51:00
3:51 AM,68.0,66.0,93,30.12,7.0,ENE,9.2,-,0.00,Rain,Light Rain,60,2013-07-13 07:51:00
4:51 AM,68.0,66.9,96,30.14,6.0,East,5.8,-,0.01,Rain,Light Rain,80,2013-07-13 08:51:00
5:51 AM,69.1,68.0,96,30.14,7.0,East,5.8,-,0.00,,Overcast,80,2013-07-13 09:51:00
6:51 AM,70.0,68.0,93,30.17,2.0,ENE,4.6,-,N/A,,Overcast,60,2013-07-13 10:51:00
7:51 AM,70.0,69.1,97,30.19,4.0,ENE,6.9,-,0.00,,Overcast,60,2013-07-13 11:51:00
8:51 AM,70.0,69.1,97,30.22,5.0,ENE,4.6,-,0.00,Rain,Light Rain,70,2013-07-13 12:51:00
9:51 AM,71.1,69.1,93,30.22,4.0,NE,8.1,-,0.02,,Overcast,50,2013-07-13 13:51:00
10:51 AM,73.0,70.0,90,30.23,3.0,ENE,6.9,-,N/A,,Overcast,70,2013-07-13 14:51:00
11:33 AM,75.2,71.6,89,30.22,4.0,Variable,5.8,-,0.00,Rain,Light Rain,0,2013-07-13 15:33:00
11:51 AM,75.9,71.1,85,30.23,4.0,East,5.8,-,0.00,,Haze,80,2013-07-13 15:51:00
11:58 AM,77.0,71.6,83,30.23,5.0,ENE,6.9,-,N/A,,Haze,70,2013-07-13 15:58:00
12:06 PM,77.0,71.6,83,30.22,5.0,NE,5.8,-,N/A,,Haze,50,2013-07-13 16:06:00
12:19 PM,78.8,71.6,78,30.23,5.0,ENE,6.9,-,N/A,,Haze,70,2013-07-13 16:19:00
12:51 PM,80.1,72.0,76,30.23,8.0,Variable,4.6,-,N/A,,Overcast,0,2013-07-13 16:51:00
1:06 PM,80.6,71.6,74,30.23,10.0,NNE,5.8,-,N/A,,Overcast,30,2013-07-13 17:06:00
1:51 PM,79.0,71.1,77,30.22,8.0,ENE,9.2,-,0.00,,Mostly Cloudy,70,2013-07-13 17:51:00
2:51 PM,80.1,71.1,74,30.22,10.0,East,9.2,-,0.00,Rain,Light Rain,90,2013-07-13 18:51:00
2:59 PM,78.8,71.6,78,30.23,8.0,East,6.9,-,0.00,Rain,Light Rain,90,2013-07-13 18:59:00
3:18 PM,77.0,73.4,89,30.23,4.0,ENE,5.8,-,0.02,Rain,Rain,70,2013-07-13 19:18:00
3:51 PM,78.1,73.0,84,30.22,6.0,East,6.9,-,0.03,,Haze,80,2013-07-13 19:51:00
4:00 PM,78.8,73.4,83,30.22,8.0,East,5.8,-,N/A,,Mostly Cloudy,80,2013-07-13 20:00:00
4:51 PM,79.0,72.0,79,30.22,8.0,East,5.8,-,N/A,,Mostly Cloudy,90,2013-07-13 20:51:00
4:58 PM,78.8,71.6,78,30.22,10.0,East,4.6,-,N/A,,Overcast,100,2013-07-13 20:58:00
5:51 PM,79.0,72.0,79,30.23,10.0,ENE,4.6,-,0.00,Rain,Light Rain,60,2013-07-13 21:51:00
6:09 PM,78.8,71.6,78,30.24,8.0,East,6.9,-,0.00,Rain,Light Rain,80,2013-07-13 22:09:00
6:32 PM,78.8,71.6,78,30.24,8.0,East,8.1,-,0.00,Rain,Light Rain,90,2013-07-13 22:32:00
6:51 PM,77.0,72.0,84,30.24,8.0,East,4.6,-,0.00,Rain,Light Rain,80,2013-07-13 22:51:00
7:14 PM,77.0,71.6,83,30.25,8.0,NE,5.8,-,N/A,,Overcast,40,2013-07-13 23:14:00
7:44 PM,77.0,71.6,83,30.25,8.0,East,5.8,-,N/A,,Overcast,80,2013-07-13 23:44:00
7:51 PM,77.0,72.0,84,30.25,8.0,ENE,4.6,-,N/A,,Overcast,70,2013-07-13 23:51:00
8:51 PM,77.0,72.0,84,30.25,10.0,ENE,3.5,-,N/A,,Mostly Cloudy,70,2013-07-14 00:51:00
9:51 PM,77.0,72.0,84,30.26,10.0,Calm,Calm,-,N/A,,Overcast,0,2013-07-14 01:51:00
10:51 PM,77.0,72.0,84,30.27,10.0,Calm,Calm,-,N/A,,Overcast,0,2013-07-14 02:51:00
11:51 PM,77.0,72.0,84,30.27,10.0,NE,3.5,-,0.00,Rain,Light Rain,40,2013-07-14 03:51:00